GW2656 Weather Reports


time (UTC)temp
F
wind
direction
speed
knots
gust
knots
rain 1hr
in
rain 24hr
in
rain mn
in
humidity
%
barometer
mb
20260506091917 56 330 1.7 2.6 0.00 0.00 0.00 37 1011.2
20260506091415 55 357 2.6 4.3 0.00 0.00 0.00 37 1011.7
20260506090912 55 338 3.5 5.2 0.00 0.00 0.00 39 1011.5
20260506090409 55 315 3.5 5.2 0.00 0.00 0.00 39 1011.4
20260506085906 55 351 4.3 7.0 0.00 0.00 0.00 39 1011.7
20260506085403 55 312 1.7 1.7 0.00 0.00 0.00 39 1011.9
20260506084859 53 321 1.7 1.7 0.00 0.00 0.00 41 1011.7
20260506084356 53 320 1.7 2.6 0.00 0.00 0.00 41 1011.8
20260506083852 52 357 6.1 7.0 0.00 0.00 0.00 41 1011.5
20260506083350 52 329 5.2 6.1 0.00 0.00 0.00 41 1011.4
20260506082847 52 11 1.7 1.7 0.00 0.00 0.00 43 1011.7
20260506082344 51 340 1.7 2.6 0.00 0.00 0.00 44 1011.5
20260506081839 51 10 4.3 5.2 0.00 0.00 0.00 44 1011.7
20260506081338 51 327 4.3 6.1 0.00 0.00 0.00 45 1011.3
20260506080835 51 263 5.2 7.0 0.00 0.00 0.00 45 1011.5
20260506080331 51 352 5.2 7.8 0.00 0.00 0.00 46 1011.4
20260506073316 49 353 3.5 4.3 0.00 0.00 0.00 46 1011.2
20260506072812 49 311 7.0 9.6 0.00 0.00 0.00 46 1011.1
20260506072310 49 53 6.1 8.7 0.00 0.00 0.00 47 1011.1
20260506071808 48 6 2.6 2.6 0.00 0.00 0.00 48 1011.0
20260506071306 48 319 5.2 7.8 0.00 0.00 0.00 48 1011.1
20260506070802 48 25 1.7 2.6 0.00 0.00 0.00 49 1010.8
20260506070259 47 7 1.7 1.7 0.00 0.00 0.00 50 1010.7
20260506062236 45 320 4.3 7.0 0.00 0.00 0.00 59 1010.0
20260506061732 45 319 0.9 1.7 0.00 0.00 0.00 59 1010.0
20260506061230 44 339 0.9 1.7 0.00 0.00 0.00 60 1009.8
20260506060728 45 286 2.6 4.3 0.00 0.00 0.00 60 1009.9
20260506060225 44 356 7.0 8.7 0.00 0.00 0.00 60 1009.9
20260506051151 42 344 4.3 5.2 0.00 0.00 0.00 65 1009.2
20260506050649 42 332 2.6 2.6 0.00 0.00 0.00 65 1009.2
20260506050146 42 301 5.2 7.0 0.00 0.00 0.00 65 1009.1
20260506044637 42 314 2.6 4.3 0.00 0.00 0.00 65 1008.8
20260506044134 42 344 2.6 2.6 0.00 0.00 0.00 65 1008.7
20260506043631 42 305 4.3 5.2 0.00 0.00 0.00 65 1008.8
20260506043129 42 331 3.5 6.1 0.00 0.00 0.00 65 1008.6
20260506042628 42 62 5.2 7.0 0.00 0.00 0.00 65 1008.7
20260506042125 42 341 4.3 5.2 0.00 0.00 0.00 64 1008.7
20260506041624 42 343 4.3 5.2 0.00 0.00 0.00 64 1008.6
20260506041120 42 346 4.3 6.1 0.00 0.00 0.00 64 1008.8
20260506040618 42 339 4.3 5.2 0.00 0.00 0.00 63 1008.8
20260506040115 42 346 2.6 4.3 0.00 0.00 0.00 62 1008.7
20260506035611 42 320 2.6 4.3 0.00 0.00 0.00 62 1008.7
20260506035108 42 319 3.5 5.2 0.00 0.00 0.00 60 1008.6
20260506034605 43 303 2.6 4.3 0.00 0.00 0.00 59 1008.4
20260506034102 42 328 2.6 5.2 0.00 0.00 0.00 58 1008.6
20260506033559 43 328 0.9 0.9 0.00 0.00 0.00 59 1008.5
20260506033056 43 344 2.6 4.3 0.00 0.00 0.00 60 1008.5
20260506032554 42 351 2.6 4.3 0.00 0.00 0.00 61 1008.6
20260506032050 42 334 4.3 7.0 0.00 0.00 0.00 62 1008.6
20260506031548 42 326 6.1 8.7 0.00 0.00 0.00 62 1008.8
20260506031044 42 306 1.7 7.0 0.00 0.00 0.00 62 1008.6
20260506030543 42 344 4.3 6.1 0.00 0.00 0.00 62 1008.7
20260506030040 42 335 2.6 2.6 0.00 0.00 0.00 62 1008.4
20260506025537 42 336 0.9 1.7 0.00 0.00 0.00 63 1008.6
20260506025033 43 344 2.6 4.3 0.00 0.00 0.00 61 1008.5
20260506024530 43 315 5.2 7.0 0.00 0.00 0.00 61 1008.6
20260506024026 42 359 4.3 6.1 0.00 0.00 0.00 61 1008.5
20260506023522 42 349 4.3 6.1 0.00 0.00 0.00 65 1008.5
20260506023020 42 332 5.2 7.0 0.00 0.00 0.00 64 1008.6
20260506022517 42 337 3.5 5.2 0.00 0.00 0.00 64 1008.6
20260506022015 42 321 4.3 6.1 0.00 0.00 0.00 63 1008.7
20260506021512 42 358 3.5 4.3 0.00 0.00 0.00 62 1008.6
20260506021009 42 327 2.6 2.6 0.00 0.00 0.00 62 1008.8
20260506020507 42 353 2.6 2.6 0.00 0.00 0.00 61 1008.8
20260506020004 42 332 1.7 1.7 0.00 0.00 0.00 62 1009.1
20260506015501 42 313 2.6 4.3 0.00 0.00 0.00 63 1008.8
20260506014958 42 318 2.6 2.6 0.00 0.00 0.00 63 1009.1
20260506014455 42 311 1.7 2.6 0.00 0.00 0.00 63 1009.0
20260506013951 42 337 1.7 2.6 0.00 0.00 0.00 63 1009.0
20260506013449 42 351 4.3 6.1 0.00 0.00 0.00 63 1009.0
20260506012945 42 359 4.3 5.2 0.00 0.00 0.00 63 1009.0
20260506012442 42 297 4.3 5.2 0.00 0.00 0.00 62 1009.1
20260506011939 42 318 5.2 6.1 0.00 0.00 0.00 62 1009.1
20260506011436 42 357 7.0 8.7 0.00 0.00 0.00 62 1008.8
20260506010933 42 4 5.2 7.0 0.00 0.00 0.00 61 1009.0
20260506010432 43 303 7.8 9.6 0.00 0.00 0.00 61 1009.2
20260506005928 43 316 5.2 7.8 0.00 0.00 0.00 61 1009.1
20260506005426 43 340 6.1 8.7 0.00 0.00 0.00 60 1009.2
20260506004921 43 309 3.5 6.1 0.00 0.00 0.00 60 1009.0
20260506004419 43 324 5.2 7.8 0.00 0.00 0.00 59 1009.4
20260506003915 43 337 4.3 6.1 0.00 0.00 0.00 59 1009.1
20260506003411 43 324 2.6 6.1 0.00 0.00 0.00 58 1009.3
20260506002908 44 326 6.1 7.8 0.00 0.00 0.00 57 1009.2
20260506002404 44 324 4.3 7.0 0.00 0.00 0.00 56 1009.2
20260506001859 44 341 3.5 4.3 0.00 0.00 0.00 55 1009.2
20260506001356 44 354 3.5 4.3 0.00 0.00 0.00 55 1009.1
20260506000854 44 339 4.3 6.1 0.00 0.00 0.00 54 1009.1
20260506000354 44 328 2.6 5.2 0.00 0.00 0.00 53 1009.1
20260505235848 44 356 4.3 5.2 0.00 0.00 0.00 53 1009.2
20260505235346 44 351 6.1 7.8 0.00 0.00 0.00 52 1009.1
20260505234842 45 333 3.5 5.2 0.00 0.00 0.00 52 1009.0
20260505234340 45 357 4.3 6.1 0.00 0.00 0.00 51 1009.1
20260505233837 45 343 3.5 4.3 0.00 0.00 0.00 51 1009.2
20260505233335 45 343 3.5 4.3 0.00 0.00 0.00 50 1009.0
20260505232832 45 309 1.7 2.6 0.00 0.00 0.00 51 1009.0
20260505232330 45 327 2.6 4.3 0.00 0.00 0.00 50 1009.3
20260505231826 45 343 3.5 5.2 0.00 0.00 0.00 49 1009.3
20260505231324 44 333 1.7 1.7 0.00 0.00 0.00 50 1009.3
20260505230822 44 340 2.6 2.6 0.00 0.00 0.00 49 1009.2
20260505230319 43 339 2.6 2.6 0.00 0.00 0.00 50 1009.4
20260505225815 42 323 0.9 0.9 0.00 0.00 0.00 50 1009.4
20260505225313 42 326 0.0 0.0 0.00 0.00 0.00 52 1009.3
20260505224808 42 327 0.0 0.9 0.00 0.00 0.00 50 1009.3
20260505224306 43 328 0.0 0.0 0.00 0.00 0.00 49 1009.2
20260505223803 43 319 0.0 0.9 0.00 0.00 0.00 47 1009.2
20260505223300 42 324 0.0 0.0 0.00 0.00 0.00 51 1009.3
20260505222755 43 333 0.0 0.0 0.00 0.00 0.00 48 1009.2
20260505222251 43 326 0.0 0.0 0.00 0.00 0.00 45 1009.7
20260505221749 42 320 0.0 0.0 0.00 0.00 0.00 46 1009.4
20260505221245 43 326 0.0 0.0 0.00 0.00 0.00 46 1009.3
20260505220742 44 330 0.0 0.9 0.00 0.00 0.00 45 1009.3
20260505220239 43 317 2.6 2.6 0.00 0.00 0.00 46 1009.4
20260505215738 44 328 0.0 0.9 0.00 0.00 0.00 46 1009.5
20260505215235 43 333 0.9 0.9 0.00 0.00 0.00 46 1009.3
20260505214733 43 327 0.0 0.9 0.00 0.00 0.00 48 1009.5
20260505214230 43 307 0.9 0.9 0.00 0.00 0.00 45 1009.5
20260505213727 44 295 0.9 0.9 0.00 0.00 0.00 46 1009.5
20260505213224 44 326 0.0 0.0 0.00 0.00 0.00 47 1009.5
20260505212720 44 324 0.9 0.9 0.00 0.00 0.00 45 1009.7
20260505212218 44 327 0.0 0.0 0.00 0.00 0.00 42 1009.5
20260505211715 45 327 0.0 0.0 0.00 0.00 0.00 43 1009.4
20260505211212 45 324 0.9 0.9 0.00 0.00 0.00 43 1009.9
20260505210708 45 326 0.0 0.0 0.00 0.00 0.00 43 1009.7
20260505210205 45 335 0.9 0.9 0.00 0.00 0.00 43 1009.7
20260505205703 45 333 0.0 0.0 0.00 0.00 0.00 44 1009.5
20260505205201 46 327 0.0 0.0 0.00 0.00 0.00 43 1009.5
20260505204657 45 328 0.0 0.0 0.00 0.00 0.00 44 1009.4
20260505204155 45 327 0.0 0.9 0.00 0.00 0.00 44 1009.5
20260505203652 44 329 0.0 0.9 0.00 0.00 0.00 45 1009.2
20260505203148 45 327 0.9 0.9 0.00 0.00 0.00 45 1009.4
20260505202644 46 328 0.0 0.9 0.00 0.00 0.00 44 1009.5
20260505202140 46 326 0.9 0.9 0.00 0.00 0.00 43 1009.3
20260505201637 46 327 0.9 1.7 0.00 0.00 0.00 42 1009.5
20260505201135 46 307 0.9 1.7 0.00 0.00 0.00 41 1009.4
20260505200633 46 327 0.0 0.0 0.00 0.00 0.00 42 1009.7
20260505200130 46 327 0.0 0.0 0.00 0.00 0.00 41 1009.4
20260505195625 45 346 1.7 1.7 0.00 0.00 0.00 43 1009.3
20260505195123 46 327 0.9 1.7 0.00 0.00 0.00 42 1009.4
20260505194614 46 326 0.0 0.0 0.00 0.00 0.00 42 1009.4
20260505194110 46 325 0.0 0.0 0.00 0.00 0.00 42 1009.2
20260505193607 47 335 0.9 0.9 0.00 0.00 0.00 41 1009.2
20260505193104 47 305 0.0 0.9 0.00 0.00 0.00 41 1009.3
20260505192603 47 321 0.9 0.9 0.00 0.00 0.00 40 1009.2
20260505192100 47 325 0.0 0.0 0.00 0.00 0.00 41 1009.2
20260505191558 47 323 0.0 0.9 0.00 0.00 0.00 41 1009.2
20260505191056 47 319 0.0 0.9 0.00 0.00 0.00 42 1009.3
20260505190550 46 320 0.0 0.9 0.00 0.00 0.00 43 1009.2
20260505190046 47 325 0.0 0.0 0.00 0.00 0.00 43 1009.1
20260505185543 48 335 0.0 0.0 0.00 0.00 0.00 41 1009.2
20260505185040 48 310 0.0 0.0 0.00 0.00 0.00 39 1009.0
20260505184537 48 322 0.9 0.9 0.00 0.00 0.00 39 1009.2
20260505184033 48 302 0.9 0.9 0.00 0.00 0.00 39 1009.0
20260505183530 49 322 0.0 0.0 0.00 0.00 0.00 38 1009.2
20260505183028 49 324 0.0 0.0 0.00 0.00 0.00 39 1009.1
20260505182524 49 332 0.9 0.9 0.00 0.00 0.00 38 1009.1
20260505182020 49 334 0.0 0.0 0.00 0.00 0.00 38 1009.0
20260505181517 50 323 0.9 0.9 0.00 0.00 0.00 37 1009.2
20260505181015 50 333 0.0 0.0 0.00 0.00 0.00 36 1009.0
20260505180510 50 341 1.7 1.7 0.00 0.00 0.00 35 1009.0
20260505180008 51 359 0.9 0.9 0.00 0.00 0.00 35 1008.8
20260505175502 51 19 2.6 4.3 0.00 0.00 0.00 34 1008.8
20260505174959 51 355 1.7 1.7 0.00 0.00 0.00 33 1008.7
20260505174451 52 31 1.7 1.7 0.00 0.00 0.00 32 1008.8
20260505173947 52 354 1.7 1.7 0.00 0.00 0.00 31 1008.7
20260505173444 52 313 1.7 2.6 0.00 0.00 0.00 30 1008.6
20260505172941 52 326 1.7 1.7 0.00 0.00 0.00 30 1008.5
20260505172439 53 343 0.9 1.7 0.00 0.00 0.00 29 1008.5
20260505171938 53 333 0.9 0.9 0.00 0.00 0.00 29 1008.4
20260505171436 53 323 1.7 1.7 0.00 0.00 0.00 28 1008.4
20260505170932 54 326 0.9 0.9 0.00 0.00 0.00 27 1008.3
20260505170429 54 356 2.6 2.6 0.00 0.00 0.00 26 1008.3
20260505165924 54 347 1.7 1.7 0.00 0.00 0.00 26 1008.4
20260505165420 54 335 0.9 1.7 0.00 0.00 0.00 25 1008.3
20260505164915 55 323 1.7 1.7 0.00 0.00 0.00 25 1008.4
20260505164407 55 341 1.7 2.6 0.00 0.00 0.00 24 1008.3
20260505163905 55 347 2.6 2.6 0.00 0.00 0.00 24 1008.1
20260505163404 56 20 1.7 2.6 0.00 0.00 0.00 23 1008.0
20260505162902 56 8 2.6 2.6 0.00 0.00 0.00 22 1008.1
20260505162357 57 347 1.7 1.7 0.00 0.00 0.00 22 1007.9
20260505161855 58 329 3.5 5.2 0.00 0.00 0.00 21 1008.0
20260505161351 59 340 1.7 1.7 0.00 0.00 0.00 22 1008.3
20260505160849 60 351 2.6 4.3 0.00 0.00 0.00 20 1007.7
20260505160347 60 10 0.9 1.7 0.00 0.00 0.00 21 1007.8
20260505153326 62 58 1.7 2.6 0.00 0.00 0.00 17 1007.7
20260505152823 62 71 2.6 4.3 0.00 0.00 0.00 16 1007.4
20260505152320 62 93 5.2 6.1 0.00 0.00 0.00 14 1007.7
20260505151820 63 42 6.1 8.7 0.00 0.00 0.00 13 1007.5
20260505151316 63 334 3.5 5.2 0.00 0.00 0.00 16 1007.4
20260505150813 63 135 3.5 6.1 0.00 0.00 0.00 16 1007.7
20260505150310 64 303 0.9 1.7 0.00 0.00 0.00 17 1007.5
20260505140235 64 6 6.1 8.7 0.00 0.00 0.00 14 1007.4
20260505130159 66 32 3.5 6.1 0.00 0.00 0.00 16 1007.5
20260505124649 64 63 4.3 7.0 0.00 0.00 0.00 15 1007.5
20260505124145 65 346 4.3 7.0 0.00 0.00 0.00 15 1007.8
20260505123641 64 318 3.5 5.2 0.00 0.00 0.00 15 1007.9
20260505123138 64 49 6.1 7.0 0.00 0.00 0.00 14 1008.0
20260505122635 65 293 4.3 7.8 0.00 0.00 0.00 13 1008.0
20260505122132 65 287 4.3 6.1 0.00 0.00 0.00 16 1008.0
20260505121629 65 318 1.7 1.7 0.00 0.00 0.00 17 1007.9
20260505121126 64 10 2.6 4.3 0.00 0.00 0.00 16 1008.3
20260505120621 64 345 4.3 5.2 0.00 0.00 0.00 15 1008.1
20260505120117 65 320 5.2 7.0 0.00 0.00 0.00 15 1008.3
20260505115612 64 322 2.6 2.6 0.00 0.00 0.00 16 1008.4
20260505115109 64 95 6.1 7.8 0.00 0.00 0.00 15 1008.3
20260505114601 64 359 5.2 7.8 0.00 0.00 0.00 16 1008.3
20260505114057 64 318 5.2 6.1 0.00 0.00 0.00 15 1008.5
20260505113553 64 329 1.7 2.6 0.00 0.00 0.00 17 1008.6
20260505113050 64 350 2.6 5.2 0.00 0.00 0.00 17 1008.7
20260505112546 64 20 2.6 2.6 0.00 0.00 0.00 19 1008.8
20260505112044 63 342 3.5 6.1 0.00 0.00 0.00 19 1008.7
20260505111538 63 307 7.0 8.7 0.00 0.00 0.00 20 1008.8
20260505111035 64 6 4.3 7.0 0.00 0.00 0.00 19 1008.8
20260505110531 64 358 3.5 5.2 0.00 0.00 0.00 20 1009.0
20260505102004 62 47 7.0 11.3 0.00 0.00 0.00 21 1009.3
20260505101501 62 303 4.3 6.1 0.00 0.00 0.00 20 1009.7
20260505100958 62 48 5.2 7.0 0.00 0.00 0.00 20 1009.5
20260505100455 63 314 6.1 8.7 0.00 0.00 0.00 21 1009.5
20260505095951 61 351 2.6 4.3 0.00 0.00 0.00 24 1009.5
20260505095448 60 21 2.6 5.2 0.00 0.00 0.00 22 1009.9
20260505094944 61 30 6.1 7.8 0.00 0.00 0.00 21 1009.8
20260505094441 60 342 3.5 5.2 0.00 0.00 0.00 22 1009.8
20260505093937 60 41 2.6 2.6 0.00 0.00 0.00 23 1009.9
20260505093434 60 359 3.5 5.2 0.00 0.00 0.00 22 1009.9
20260505092931 60 99 2.6 4.3 0.00 0.00 0.00 23 1010.1
20260505092429 60 24 4.3 7.0 0.00 0.00 0.00 24 1010.0